Freeport, IL

7:28 PM CDT on April 24, 2018 (GMT -0500)
Albertus

Weather History for KFEP - April, 2014

Change the Weather History Date:

Thursday, April 17, 2014

  Actual Average Record
Temperature  
Mean Temperature 48 °F -  
Max Temperature 59 °F 58 °F 86 °F (1977)
Min Temperature 38 °F 36 °F 23 °F (1983)
Degree Days  
Heating Degree Days 16    
Moisture  
Dew Point 37 °F    
Average Humidity 66    
Maximum Humidity 84    
Minimum Humidity 47    
Precipitation  
Precipitation 0.00 in - - ()
Sea Level Pressure  
Sea Level Pressure 30.17 in    
Wind  
Wind Speed 14 mph (WSW)    
Max Wind Speed 23 mph    
Max Gust Speed 31 mph    
Visibility 10 miles    
Events      
Averages and records for this station are not official NWS values.
T = Trace of Precipitation, MM = Missing Value Source: NWS Daily Summary

Daily Weather History Graph

Daily Weather History Graph

Search for Another Location

Airport or City:

Astronomy

Apr. 17, 2014 Rise Set
Actual Time 6:14 AM CDT 7:42 PM CDT
Civil Twilight 5:45 AM CDT 8:11 PM CDT
Nautical Twilight 5:09 AM CDT 8:46 PM CDT
Astronomical Twilight 4:32 AM CDT 9:24 PM CDT
Moon 10:30 PM CDT (4/17) 7:44 AM CDT (4/17)
Length of Visible Light 14h 26m
Length of Day
13h 27m
Waning Gibbous, 93% of the Moon is Illuminated
Apr 17
Waning Gibbous
Apr 22
Last Quarter
Apr 29
New
May 6
First Quarter
May 14
Full

Hourly Weather History & Observations

Time (CDT) Temp. Windchill Dew Point Humidity Pressure Visibility Wind Dir Wind Speed Gust Speed Precip Events Conditions
12:15 AM 46.0 °F 38.5 °F 31.6 °F 57% 30.06 in 10.0 mi SSE 19.6 mph 27.6 mph N/A   Overcast
12:35 AM 45.5 °F 37.6 °F 31.3 °F 58% 30.06 in 10.0 mi SSE 20.7 mph 27.6 mph N/A   Overcast
12:55 AM 45.5 °F 37.6 °F 31.1 °F 57% 30.06 in 10.0 mi SSE 20.7 mph 29.9 mph N/A   Mostly Cloudy
1:15 AM 45.3 °F 37.1 °F 31.3 °F 58% 30.06 in 10.0 mi SSE 21.9 mph - N/A   Mostly Cloudy
1:35 AM 45.0 °F 36.6 °F 31.3 °F 59% 30.05 in 10.0 mi SSE 21.9 mph 31.1 mph N/A   Overcast
1:55 AM 45.0 °F 36.4 °F 31.6 °F 60% 30.05 in 10.0 mi SSE 23.0 mph 28.8 mph N/A   Overcast
2:15 AM 44.8 °F 36.6 °F 32.0 °F 61% 30.05 in 10.0 mi SSE 20.7 mph 27.6 mph N/A   Overcast
2:35 AM 43.9 °F 35.2 °F 31.8 °F 63% 30.04 in 10.0 mi SSE 21.9 mph 26.5 mph N/A   Overcast
2:55 AM 43.9 °F 35.2 °F 31.6 °F 62% 30.03 in 10.0 mi SSE 21.9 mph 28.8 mph N/A   Overcast
3:15 AM 43.7 °F 34.7 °F 32.0 °F 63% 30.02 in 10.0 mi SSE 23.0 mph 28.8 mph N/A   Scattered Clouds
3:35 AM 43.7 °F 35.2 °F 32.2 °F 64% 30.03 in 10.0 mi SSE 20.7 mph 27.6 mph N/A   Clear
3:55 AM 43.7 °F 35.2 °F 32.5 °F 65% 30.04 in 10.0 mi South 20.7 mph - N/A   Scattered Clouds
4:15 AM 43.5 °F 35.2 °F 33.3 °F 67% 30.04 in 10.0 mi South 19.6 mph - N/A   Scattered Clouds
4:35 AM 41.4 °F 32.7 °F 32.0 °F 69% 30.03 in 10.0 mi South 18.4 mph - N/A   Clear
4:55 AM 41.2 °F 33.0 °F 33.3 °F 73% 30.04 in 10.0 mi South 16.1 mph - N/A   Clear
5:15 AM 40.5 °F 32.1 °F 33.4 °F 76% 30.03 in 10.0 mi South 16.1 mph - N/A   Clear
5:35 AM 38.7 °F 30.9 °F 32.9 °F 80% 30.04 in 10.0 mi South 12.7 mph - N/A   Clear
5:55 AM 39.2 °F 31.2 °F 32.9 °F 78% 30.04 in 10.0 mi South 13.8 mph - N/A   Clear
6:15 AM 39.6 °F 32.1 °F 33.4 °F 79% 30.05 in 10.0 mi South 12.7 mph - N/A   Clear
6:35 AM 41.5 °F 33.5 °F 33.3 °F 72% 30.06 in 10.0 mi SSW 16.1 mph - N/A   Mostly Cloudy
6:55 AM 43.7 °F 36.0 °F 34.7 °F 71% 30.07 in 10.0 mi SSW 17.3 mph - N/A   Overcast
7:15 AM 43.7 °F 37.3 °F 35.4 °F 73% 30.08 in 10.0 mi SSW 12.7 mph - N/A   Overcast
7:35 AM 43.7 °F 37.3 °F 36.7 °F 76% 30.09 in 10.0 mi SW 12.7 mph - N/A   Overcast
7:55 AM 43.7 °F 37.7 °F 37.9 °F 80% 30.11 in 10.0 mi SW 11.5 mph - N/A   Overcast
8:15 AM 43.7 °F 37.3 °F 39.2 °F 84% 30.12 in 10.0 mi SW 12.7 mph 18.4 mph N/A   Overcast
8:35 AM 43.7 °F 37.7 °F 38.3 °F 81% 30.13 in 10.0 mi WSW 11.5 mph 18.4 mph N/A   Overcast
8:55 AM 43.7 °F 37.3 °F 38.5 °F 82% 30.14 in 10.0 mi WSW 12.7 mph 18.4 mph N/A   Overcast
9:15 AM 43.7 °F 36.9 °F 37.8 °F 80% 30.14 in 10.0 mi WSW 13.8 mph - N/A   Mostly Cloudy
9:40 AM 43.9 °F 37.5 °F 37.8 °F 79% 30.15 in 10.0 mi West 12.7 mph 16.1 mph N/A   Mostly Cloudy
10:00 AM 43.7 °F 37.7 °F 37.4 °F 78% 30.17 in 10.0 mi West 11.5 mph - N/A   Overcast
10:15 AM 43.9 °F 37.9 °F 37.4 °F 78% 30.18 in 10.0 mi West 11.5 mph - N/A   Overcast
10:40 AM 44.6 °F 38.4 °F 37.4 °F 76% 30.19 in 10.0 mi West 12.7 mph - N/A   Overcast
10:55 AM 44.8 °F 39.4 °F 37.2 °F 75% 30.20 in 10.0 mi West 10.4 mph 16.1 mph N/A   Overcast
11:20 AM 45.0 °F 39.7 °F 37.4 °F 75% 30.21 in 10.0 mi West 10.4 mph - N/A   Overcast
11:35 AM 45.1 °F 40.8 °F 37.0 °F 73% 30.21 in 10.0 mi West 8.1 mph - N/A   Overcast
11:55 AM 46.4 °F 41.5 °F 37.8 °F 72% 30.21 in 10.0 mi West 10.4 mph - N/A   Overcast
12:15 PM 46.8 °F - 37.9 °F 71% 30.21 in 10.0 mi West 8.1 mph - N/A   Overcast
12:35 PM 47.3 °F - 37.9 °F 70% 30.22 in 10.0 mi West 5.8 mph - N/A   Overcast
12:55 PM 49.6 °F - 39.2 °F 67% 30.22 in 10.0 mi West 5.8 mph - N/A   Mostly Cloudy
1:15 PM 51.3 °F - 40.1 °F 66% 30.22 in 10.0 mi West 8.1 mph - N/A   Scattered Clouds
1:35 PM 53.1 °F - 41.2 °F 64% 30.22 in 10.0 mi WSW 5.8 mph - N/A   Scattered Clouds
1:55 PM 54.0 °F - 40.5 °F 60% 30.22 in 10.0 mi West 5.8 mph 9.2 mph N/A   Scattered Clouds
2:15 PM 54.0 °F - 39.7 °F 59% 30.22 in 10.0 mi WNW 9.2 mph - N/A   Clear
2:35 PM 54.7 °F - 39.9 °F 58% 30.22 in 10.0 mi WSW 8.1 mph - N/A   Scattered Clouds
2:55 PM 54.7 °F - 39.6 °F 57% 30.22 in 10.0 mi West 5.8 mph - N/A   Scattered Clouds
3:15 PM 54.7 °F - 39.2 °F 56% 30.22 in 10.0 mi West 10.4 mph - N/A   Scattered Clouds
3:35 PM 56.5 °F - 39.0 °F 52% 30.22 in 10.0 mi West 6.9 mph - N/A   Clear
3:55 PM 56.5 °F - 39.0 °F 52% 30.22 in 10.0 mi WNW 10.4 mph - N/A   Clear
4:15 PM 57.6 °F - 39.4 °F 51% 30.22 in 10.0 mi West 6.9 mph - N/A   Clear
4:35 PM 56.8 °F - 38.7 °F 51% 30.22 in 10.0 mi WNW 8.1 mph - N/A   Clear
4:55 PM 59.0 °F - 39.7 °F 49% 30.22 in 10.0 mi WNW 6.9 mph 10.4 mph N/A   Clear
5:15 PM 58.6 °F - 40.1 °F 50% 30.23 in 10.0 mi West 5.8 mph - N/A   Clear
5:35 PM 59.0 °F - 39.4 °F 48% 30.22 in 10.0 mi WNW 4.6 mph - N/A   Clear
5:55 PM 59.0 °F - 38.7 °F 47% 30.22 in 10.0 mi West 5.8 mph - N/A   Clear
6:15 PM 57.7 °F - 38.1 °F 48% 30.22 in 10.0 mi West 6.9 mph - N/A   Clear
6:35 PM 56.5 °F - 36.9 °F 48% 30.23 in 10.0 mi WNW 4.6 mph - N/A   Clear
6:55 PM 56.3 °F - 38.3 °F 51% 30.23 in 10.0 mi West 4.6 mph - N/A   Clear
7:15 PM 54.0 °F - 37.8 °F 54% 30.24 in 10.0 mi West 4.6 mph - N/A   Clear
7:35 PM 54.0 °F - 37.9 °F 55% 30.24 in 10.0 mi WSW 3.5 mph - N/A   Clear
7:55 PM 54.0 °F - 39.0 °F 57% 30.24 in 10.0 mi WSW 4.6 mph - N/A   Clear
8:15 PM 54.0 °F - 40.1 °F 59% 30.25 in 10.0 mi WSW 4.6 mph - N/A   Scattered Clouds
8:35 PM 51.4 °F - 41.0 °F 68% 30.26 in 10.0 mi NW 8.1 mph - N/A   Mostly Cloudy
8:55 PM 48.9 °F - 38.5 °F 67% 30.27 in 10.0 mi NW 5.8 mph - N/A   Scattered Clouds
9:15 PM 47.7 °F - 37.4 °F 68% 30.28 in 10.0 mi WNW 5.8 mph - N/A   Clear
9:35 PM 47.8 °F - 37.6 °F 68% 30.28 in 10.0 mi WNW 3.5 mph - N/A   Clear
9:55 PM 46.9 °F - 37.8 °F 70% 30.28 in 10.0 mi West 3.5 mph - N/A   Clear
10:15 PM 45.5 °F 43.2 °F 37.9 °F 75% 30.28 in 10.0 mi West 4.6 mph - N/A   Clear
10:35 PM 45.0 °F 42.6 °F 37.4 °F 75% 30.28 in 10.0 mi WNW 4.6 mph - N/A   Clear
10:55 PM 43.7 °F 40.3 °F 37.0 °F 77% 30.28 in 10.0 mi WNW 5.8 mph - N/A   Clear
11:15 PM 43.7 °F 41.1 °F 37.6 °F 79% 30.28 in 10.0 mi West 4.6 mph - N/A   Clear
11:35 PM 41.9 °F 38.2 °F 36.5 °F 81% 30.28 in 10.0 mi WNW 5.8 mph - N/A   Clear
11:55 PM 41.2 °F 37.3 °F 36.0 °F 82% 30.29 in 10.0 mi WNW 5.8 mph - N/A   Clear